Location: Moscow
(38.8570°N, 84.2291°W)
Time: 14:41:38
(UTC+00:00)

Cosmos 2151 Rocket - Visible Passes

Search period start: 14 February 2026 00:00
Search period end: 24 February 2026 00:00
Orbit: 612 x 635 km, 82.5° (Epoch: 13 February)

Date Brightness Start Highest point End Pass type
(mag) Time Alt. Az. Time Alt. Az. Time Alt. Az.
14 Feb 5.4 00:17:28 10° NNW 00:21:34 35° W 00:25:38 10° SSW visible
14 Feb 7.0 11:12:47 10° ESE 11:14:35 12° E 11:16:23 10° ENE visible
15 Feb 6.6 00:37:02 10° NW 00:40:06 18° W 00:43:11 10° SW visible
15 Feb 6.3 11:29:33 10° SE 11:33:04 24° E 11:36:37 10° NE visible
16 Feb 4.8 11:47:26 10° SSE 11:51:39 47° E 11:55:56 10° NNE visible
16 Feb 4.4 23:35:36 10° NNW 23:40:01 58° W 23:44:24 10° S visible
17 Feb 6.0 23:54:46 10° NNW 23:58:38 29° W 00:02:30 10° SSW visible
18 Feb 6.9 10:49:04 10° ESE 10:51:37 15° E 10:54:10 10° NE visible
19 Feb 6.9 00:14:35 10° NW 00:17:10 15° W 00:19:43 10° WSW visible
19 Feb 5.8 11:06:19 10° SSE 11:10:07 29° E 11:13:58 10° NNE visible
20 Feb 4.3 11:24:25 10° S 11:28:45 59° E 11:33:08 10° NNE visible
21 Feb 3.5 11:43:04 10° SSW 11:47:28 69° W 11:51:56 10° N visible
22 Feb 6.5 10:25:36 10° SE 10:28:39 18° E 10:31:43 10° NE visible
22 Feb 7.1 23:52:20 10° WNW 23:54:10 12° W 23:56:02 10° WSW visible
23 Feb 5.3 10:43:09 10° SSE 10:47:11 35° E 10:51:16 10° NNE visible
